Time,TemperatureF,DewpointF,PressureIn,WindDirection,WindDirectionDegrees,WindSpeedMPH,WindSpeedGustMPH,Humidity,HourlyPrecipIn,Conditions,Clouds,dailyrainin,SolarRadiationWatts/m^2,SoftwareType,DateUTC
2013-03-08 00:01:00,46.0,40.0,-100.00,ESE,109,2.0,7.0,79,0.00,,,0.00,0.000000,,2013-03-08 06:01:00,
2013-03-08 00:32:00,44.0,39.0,-100.00,ESE,106,2.0,5.0,84,0.00,,,0.00,0.000000,,2013-03-08 06:32:00,
2013-03-08 00:42:00,44.0,39.0,-100.00,ESE,106,2.0,5.0,84,0.00,,,0.00,0.000000,,2013-03-08 06:42:00,
2013-03-08 00:52:00,44.0,39.0,-100.00,ESE,106,2.0,5.0,84,0.00,,,0.00,0.000000,,2013-03-08 06:52:00,
2013-03-08 01:01:00,44.0,39.0,-100.00,ESE,106,2.0,5.0,84,0.00,,,0.00,0.000000,,2013-03-08 07:01:00,
2013-03-08 01:32:00,42.0,39.0,-100.00,East,94,2.0,3.0,89,0.00,,,0.00,0.000000,,2013-03-08 07:32:00,
2013-03-08 01:42:00,42.0,39.0,-100.00,East,94,2.0,3.0,89,0.00,,,0.00,0.000000,,2013-03-08 07:42:00,
2013-03-08 01:52:00,42.0,39.0,-100.00,East,94,2.0,3.0,89,0.00,,,0.00,0.000000,,2013-03-08 07:52:00,
2013-03-08 02:01:00,42.0,39.0,-100.00,East,94,2.0,3.0,89,0.00,,,0.00,0.000000,,2013-03-08 08:01:00,
2013-03-08 02:32:00,41.0,38.0,-100.00,ESE,110,3.0,4.0,89,0.00,,,0.00,0.000000,,2013-03-08 08:32:00,
2013-03-08 02:42:00,41.0,38.0,-100.00,ESE,110,3.0,4.0,89,0.00,,,0.00,0.000000,,2013-03-08 08:42:00,
2013-03-08 02:52:00,41.0,38.0,-100.00,ESE,110,3.0,4.0,89,0.00,,,0.00,0.000000,,2013-03-08 08:52:00,
2013-03-08 03:03:00,41.0,38.0,-100.00,ESE,110,3.0,4.0,89,0.00,,,0.00,0.000000,,2013-03-08 09:03:00,
2013-03-08 03:32:00,40.0,38.0,-100.00,East,82,3.0,4.0,92,0.00,,,0.00,0.000000,,2013-03-08 09:32:00,
2013-03-08 03:42:00,40.0,38.0,-100.00,East,82,3.0,4.0,92,0.00,,,0.00,0.000000,,2013-03-08 09:42:00,
2013-03-08 03:52:00,40.0,38.0,-100.00,East,82,3.0,4.0,92,0.00,,,0.00,0.000000,,2013-03-08 09:52:00,
2013-03-08 04:01:00,40.0,38.0,-100.00,East,82,3.0,4.0,92,0.00,,,0.00,0.000000,,2013-03-08 10:01:00,
2013-03-08 04:32:00,42.0,40.0,-100.00,NE,51,4.0,5.0,92,0.00,,,0.00,0.000000,,2013-03-08 10:32:00,
2013-03-08 04:42:00,42.0,40.0,-100.00,NE,51,4.0,5.0,92,0.00,,,0.00,0.000000,,2013-03-08 10:42:00,
2013-03-08 04:52:00,42.0,40.0,-100.00,NE,51,4.0,5.0,92,0.00,,,0.00,0.000000,,2013-03-08 10:52:00,
2013-03-08 05:01:00,42.0,40.0,-100.00,NE,51,4.0,5.0,92,0.00,,,0.00,0.000000,,2013-03-08 11:01:00,
2013-03-08 05:32:00,41.0,39.0,-100.00,East,88,4.0,6.0,92,0.00,,,0.00,0.000000,,2013-03-08 11:32:00,
2013-03-08 05:42:00,41.0,39.0,-100.00,East,88,4.0,6.0,92,0.00,,,0.00,0.000000,,2013-03-08 11:42:00,
2013-03-08 05:52:00,41.0,39.0,-100.00,East,88,4.0,6.0,92,0.00,,,0.00,0.000000,,2013-03-08 11:52:00,
2013-03-08 06:01:00,41.0,39.0,-100.00,East,88,4.0,6.0,92,0.00,,,0.00,0.000000,,2013-03-08 12:01:00,
2013-03-08 06:32:00,42.0,40.0,-100.00,ENE,60,5.0,6.0,92,0.00,,,0.00,0.000000,,2013-03-08 12:32:00,
2013-03-08 06:43:00,42.0,40.0,-100.00,ENE,60,5.0,6.0,92,0.00,,,0.00,0.000000,,2013-03-08 12:43:00,
2013-03-08 06:53:00,42.0,40.0,-100.00,ENE,60,5.0,6.0,92,0.00,,,0.00,0.000000,,2013-03-08 12:53:00,
2013-03-08 07:01:00,42.0,40.0,-100.00,ENE,60,5.0,6.0,92,0.00,,,0.00,0.000000,,2013-03-08 13:01:00,
2013-03-08 07:32:00,42.0,40.0,-100.00,East,85,5.0,7.0,92,0.00,,,-99.99,11.000000,,2013-03-08 13:32:00,
2013-03-08 07:42:00,42.0,40.0,-100.00,East,85,5.0,7.0,92,0.00,,,-99.99,11.000000,,2013-03-08 13:42:00,
2013-03-08 07:52:00,42.0,40.0,-100.00,East,85,5.0,7.0,92,0.00,,,-99.99,11.000000,,2013-03-08 13:52:00,
2013-03-08 08:02:00,42.0,40.0,-100.00,East,85,5.0,7.0,92,0.00,,,-99.99,11.000000,,2013-03-08 14:02:00,
2013-03-08 08:32:00,48.0,45.0,-100.00,East,93,4.0,7.0,90,0.00,,,0.00,70.000000,,2013-03-08 14:32:00,
2013-03-08 08:42:00,48.0,45.0,-100.00,East,93,4.0,7.0,90,0.00,,,0.00,70.000000,,2013-03-08 14:42:00,
2013-03-08 08:52:00,48.0,45.0,-100.00,East,93,4.0,7.0,90,0.00,,,0.00,70.000000,,2013-03-08 14:52:00,
2013-03-08 09:03:00,48.0,45.0,-100.00,East,93,4.0,7.0,90,0.00,,,0.00,70.000000,,2013-03-08 15:03:00,
2013-03-08 09:32:00,56.0,50.0,-100.00,East,91,6.0,10.0,79,0.00,,,0.00,134.000000,,2013-03-08 15:32:00,
2013-03-08 09:43:00,56.0,50.0,-100.00,East,91,6.0,10.0,79,0.00,,,0.00,134.000000,,2013-03-08 15:43:00,
2013-03-08 09:53:00,56.0,50.0,-100.00,East,91,6.0,10.0,79,0.00,,,0.00,134.000000,,2013-03-08 15:53:00,
2013-03-08 10:01:00,56.0,50.0,-100.00,East,91,6.0,10.0,79,0.00,,,0.00,134.000000,,2013-03-08 16:01:00,
2013-03-08 10:32:00,65.0,53.0,-100.00,ESE,121,4.0,12.0,65,0.00,,,0.00,447.000000,,2013-03-08 16:32:00,
2013-03-08 10:42:00,65.0,53.0,-100.00,ESE,121,4.0,12.0,65,0.00,,,0.00,447.000000,,2013-03-08 16:42:00,
2013-03-08 10:52:00,65.0,53.0,-100.00,ESE,121,4.0,12.0,65,0.00,,,0.00,447.000000,,2013-03-08 16:52:00,
2013-03-08 11:02:00,65.0,53.0,-100.00,ESE,121,4.0,12.0,65,0.00,,,0.00,447.000000,,2013-03-08 17:02:00,
2013-03-08 11:32:00,69.0,54.0,-100.00,SE,135,6.0,13.0,58,0.00,,,0.00,539.000000,,2013-03-08 17:32:00,
2013-03-08 11:42:00,69.0,54.0,-100.00,SE,135,6.0,13.0,58,0.00,,,0.00,539.000000,,2013-03-08 17:42:00,
2013-03-08 11:52:00,69.0,54.0,-100.00,SE,135,6.0,13.0,58,0.00,,,0.00,539.000000,,2013-03-08 17:52:00,
2013-03-08 12:02:00,69.0,54.0,-100.00,SE,135,6.0,13.0,58,0.00,,,0.00,539.000000,,2013-03-08 18:02:00,
2013-03-08 12:32:00,71.0,52.0,-100.00,SSW,196,4.0,12.0,51,0.00,,,0.00,612.000000,,2013-03-08 18:32:00,
2013-03-08 12:42:00,71.0,52.0,-100.00,SSW,196,4.0,12.0,51,0.00,,,0.00,612.000000,,2013-03-08 18:42:00,
2013-03-08 12:52:00,71.0,52.0,-100.00,SSW,196,4.0,12.0,51,0.00,,,0.00,612.000000,,2013-03-08 18:52:00,
2013-03-08 13:01:00,71.0,52.0,-100.00,SSW,196,4.0,12.0,51,0.00,,,0.00,612.000000,,2013-03-08 19:01:00,
2013-03-08 13:32:00,73.0,50.0,-100.00,SE,127,4.0,10.0,45,0.00,,,0.00,520.000000,,2013-03-08 19:32:00,
2013-03-08 13:42:00,73.0,50.0,-100.00,SE,127,4.0,10.0,45,0.00,,,0.00,520.000000,,2013-03-08 19:42:00,
2013-03-08 13:52:00,73.0,50.0,-100.00,SE,127,4.0,10.0,45,0.00,,,0.00,520.000000,,2013-03-08 19:52:00,
2013-03-08 14:01:00,73.0,50.0,-100.00,SE,127,4.0,10.0,45,0.00,,,0.00,520.000000,,2013-03-08 20:01:00,
2013-03-08 14:32:00,75.0,51.0,-100.00,SE,144,7.0,14.0,43,0.00,,,0.00,670.000000,,2013-03-08 20:32:00,
2013-03-08 14:42:00,75.0,51.0,-100.00,SE,144,7.0,14.0,43,0.00,,,0.00,670.000000,,2013-03-08 20:42:00,
2013-03-08 14:53:00,75.0,51.0,-100.00,SE,144,7.0,14.0,43,0.00,,,0.00,670.000000,,2013-03-08 20:53:00,
2013-03-08 15:02:00,75.0,51.0,-100.00,SE,144,7.0,14.0,43,0.00,,,0.00,670.000000,,2013-03-08 21:02:00,
2013-03-08 15:33:00,75.0,52.0,-100.00,ESE,111,8.0,15.0,44,0.00,,,-99.99,641.000000,,2013-03-08 21:33:00,
2013-03-08 15:42:00,75.0,52.0,-100.00,ESE,111,8.0,15.0,44,0.00,,,-99.99,641.000000,,2013-03-08 21:42:00,
2013-03-08 15:52:00,75.0,52.0,-100.00,ESE,111,8.0,15.0,44,0.00,,,-99.99,641.000000,,2013-03-08 21:52:00,
2013-03-08 16:01:00,75.0,52.0,-100.00,ESE,111,8.0,15.0,44,0.00,,,-99.99,641.000000,,2013-03-08 22:01:00,
2013-03-08 16:32:00,74.0,50.0,-100.00,SE,127,7.0,15.0,43,0.00,,,0.00,430.000000,,2013-03-08 22:32:00,
2013-03-08 16:42:00,74.0,50.0,-100.00,SE,127,7.0,15.0,43,0.00,,,0.00,430.000000,,2013-03-08 22:42:00,
2013-03-08 16:53:00,74.0,50.0,-100.00,SE,127,7.0,15.0,43,0.00,,,0.00,430.000000,,2013-03-08 22:53:00,
2013-03-08 17:01:00,74.0,50.0,-100.00,SE,127,7.0,15.0,43,0.00,,,0.00,430.000000,,2013-03-08 23:01:00,
2013-03-08 17:32:00,72.0,49.0,-100.00,SE,124,6.0,15.0,44,0.00,,,0.00,261.000000,,2013-03-08 23:32:00,
2013-03-08 17:42:00,72.0,49.0,-100.00,SE,124,6.0,15.0,44,0.00,,,0.00,261.000000,,2013-03-08 23:42:00,
2013-03-08 17:53:00,72.0,49.0,-100.00,SE,124,6.0,15.0,44,0.00,,,0.00,261.000000,,2013-03-08 23:53:00,
2013-03-08 18:02:00,72.0,49.0,-100.00,SE,124,6.0,15.0,44,0.00,,,0.00,261.000000,,2013-03-09 00:02:00,
2013-03-08 18:32:00,66.0,48.0,-100.00,SSE,157,6.0,12.0,52,0.00,,,0.00,49.000000,,2013-03-09 00:32:00,
2013-03-08 18:42:00,66.0,48.0,-100.00,SSE,157,6.0,12.0,52,0.00,,,0.00,49.000000,,2013-03-09 00:42:00,
2013-03-08 18:52:00,66.0,48.0,-100.00,SSE,157,6.0,12.0,52,0.00,,,0.00,49.000000,,2013-03-09 00:52:00,
2013-03-08 19:01:00,66.0,48.0,-100.00,SSE,157,6.0,12.0,52,0.00,,,0.00,49.000000,,2013-03-09 01:01:00,
2013-03-08 21:32:00,61.0,46.0,-100.00,SE,140,8.0,15.0,57,-99.99,,,0.00,0.000000,,2013-03-09 03:32:00,
2013-03-08 21:42:00,61.0,46.0,-100.00,SE,140,8.0,15.0,57,-99.99,,,0.00,0.000000,,2013-03-09 03:42:00,
2013-03-08 21:52:00,61.0,46.0,-100.00,SE,140,8.0,15.0,57,-99.99,,,0.00,0.000000,,2013-03-09 03:52:00,
2013-03-08 22:01:00,61.0,46.0,-100.00,SE,140,8.0,15.0,57,-99.99,,,0.00,0.000000,,2013-03-09 04:01:00,
2013-03-08 22:32:00,60.0,47.0,-100.00,SE,131,6.0,12.0,61,0.00,,,0.00,0.000000,,2013-03-09 04:32:00,
2013-03-08 22:42:00,60.0,47.0,-100.00,SE,131,6.0,12.0,61,0.00,,,0.00,0.000000,,2013-03-09 04:42:00,
2013-03-08 22:52:00,60.0,47.0,-100.00,SE,131,6.0,12.0,61,0.00,,,0.00,0.000000,,2013-03-09 04:52:00,
2013-03-08 23:02:00,60.0,47.0,-100.00,SE,131,6.0,12.0,61,0.00,,,0.00,0.000000,,2013-03-09 05:02:00,
2013-03-08 23:32:00,58.0,46.0,-100.00,SSE,148,4.0,11.0,65,0.00,,,0.00,0.000000,,2013-03-09 05:32:00,
2013-03-08 23:43:00,58.0,46.0,-100.00,SSE,148,4.0,11.0,65,0.00,,,0.00,0.000000,,2013-03-09 05:43:00,
2013-03-08 23:53:00,58.0,46.0,-100.00,SSE,148,4.0,11.0,65,0.00,,,0.00,0.000000,,2013-03-09 05:53:00,